Time,TemperatureF,DewpointF,PressureIn,WindDirection,WindDirectionDegrees,WindSpeedMPH,WindSpeedGustMPH,Humidity,HourlyPrecipIn,Conditions,Clouds,dailyrainin,SoftwareType,DateUTC
2013-03-05 00:12:00,33.6,27.0,30.12,NW,318,0.0,0.0,76,0.00,,,0.00,weatherlink.com 1.10,2013-03-05 05:12:00,
2013-03-05 00:27:00,33.4,26.0,30.12,NW,318,0.0,0.0,74,0.00,,,0.00,weatherlink.com 1.10,2013-03-05 05:27:00,
2013-03-05 00:42:00,33.1,25.0,30.12,NW,318,0.0,0.0,73,0.00,,,0.00,weatherlink.com 1.10,2013-03-05 05:42:00,
2013-03-05 00:57:00,32.8,25.0,30.12,NW,318,0.0,0.0,73,0.00,,,0.00,weatherlink.com 1.10,2013-03-05 05:57:00,
2013-03-05 01:13:00,32.1,25.0,30.12,NW,318,0.0,0.0,74,0.00,,,0.00,weatherlink.com 1.10,2013-03-05 06:13:00,
2013-03-05 01:28:00,32.0,25.0,30.12,NW,318,0.0,0.0,76,0.00,,,0.00,weatherlink.com 1.10,2013-03-05 06:28:00,
2013-03-05 01:43:00,31.5,25.0,30.12,NW,318,0.0,0.0,76,0.00,,,0.00,weatherlink.com 1.10,2013-03-05 06:43:00,
2013-03-05 01:58:00,31.1,26.0,30.12,NW,317,0.0,0.0,80,0.00,,,0.00,weatherlink.com 1.10,2013-03-05 06:58:00,
2013-03-05 02:13:00,30.9,25.0,30.11,NW,318,0.0,0.0,80,0.00,,,0.00,weatherlink.com 1.10,2013-03-05 07:13:00,
2013-03-05 02:28:00,30.9,25.0,30.11,NW,317,0.0,0.0,80,0.00,,,0.00,weatherlink.com 1.10,2013-03-05 07:28:00,
2013-03-05 02:43:00,30.8,26.0,30.10,NW,317,0.0,0.0,82,0.00,,,0.00,weatherlink.com 1.10,2013-03-05 07:43:00,
2013-03-05 02:58:00,30.5,26.0,30.10,NW,318,0.0,0.0,82,0.00,,,0.00,weatherlink.com 1.10,2013-03-05 07:58:00,
2013-03-05 03:13:00,29.8,25.0,30.09,NW,318,0.0,0.0,83,0.00,,,0.00,weatherlink.com 1.10,2013-03-05 08:13:00,
2013-03-05 03:28:00,29.6,25.0,30.08,NW,318,0.0,0.0,83,0.00,,,0.00,weatherlink.com 1.10,2013-03-05 08:28:00,
2013-03-05 03:43:00,30.2,26.0,30.08,NNW,343,0.0,0.0,84,0.00,,,0.00,weatherlink.com 1.10,2013-03-05 08:43:00,
2013-03-05 03:58:00,30.3,26.0,30.08,NNW,339,0.0,0.0,84,0.00,,,0.00,weatherlink.com 1.10,2013-03-05 08:58:00,
2013-03-05 04:13:00,31.1,27.0,30.07,West,266,0.0,1.0,83,0.00,,,0.00,weatherlink.com 1.10,2013-03-05 09:13:00,
2013-03-05 04:28:00,32.0,27.0,30.07,West,266,0.0,1.0,81,0.00,,,0.00,weatherlink.com 1.10,2013-03-05 09:28:00,
2013-03-05 04:43:00,32.9,27.0,30.07,West,264,0.0,0.0,79,0.00,,,0.00,weatherlink.com 1.10,2013-03-05 09:43:00,
2013-03-05 04:58:00,33.5,27.0,30.07,West,264,0.0,0.0,78,0.00,,,0.00,weatherlink.com 1.10,2013-03-05 09:58:00,
2013-03-05 05:13:00,33.9,27.0,30.06,SSW,204,0.0,1.0,77,0.00,,,0.00,weatherlink.com 1.10,2013-03-05 10:13:00,
2013-03-05 05:28:00,34.0,28.0,30.06,SSW,204,0.0,0.0,77,0.00,,,0.00,weatherlink.com 1.10,2013-03-05 10:28:00,
2013-03-05 05:43:00,33.9,28.0,30.06,SSW,203,0.0,0.0,79,0.00,,,0.00,weatherlink.com 1.10,2013-03-05 10:43:00,
2013-03-05 05:58:00,34.3,28.0,30.06,SSW,203,0.0,0.0,78,0.00,,,0.00,weatherlink.com 1.10,2013-03-05 10:58:00,
2013-03-05 06:13:00,34.7,29.0,30.05,SSW,203,0.0,0.0,80,0.00,,,0.00,weatherlink.com 1.10,2013-03-05 11:13:00,
2013-03-05 06:28:00,36.4,30.0,30.05,WNW,301,0.0,1.0,76,0.00,,,0.00,weatherlink.com 1.10,2013-03-05 11:28:00,
2013-03-05 06:43:00,38.8,29.0,30.05,West,281,1.0,2.0,69,0.00,,,0.00,weatherlink.com 1.10,2013-03-05 11:43:00,
2013-03-05 06:58:00,40.9,29.0,30.06,West,269,2.0,3.0,62,0.00,,,0.00,weatherlink.com 1.10,2013-03-05 11:58:00,
2013-03-05 07:13:00,41.1,29.0,30.05,WSW,243,1.0,2.0,62,0.00,,,0.00,weatherlink.com 1.10,2013-03-05 12:13:00,
2013-03-05 07:28:00,40.8,30.0,30.04,West,269,2.0,4.0,66,0.00,,,0.00,weatherlink.com 1.10,2013-03-05 12:28:00,
2013-03-05 07:43:00,40.7,31.0,30.05,WNW,292,1.0,4.0,68,0.00,,,0.00,weatherlink.com 1.10,2013-03-05 12:43:00,
2013-03-05 07:58:00,40.6,31.0,30.05,WNW,293,1.0,5.0,69,0.00,,,0.00,weatherlink.com 1.10,2013-03-05 12:58:00,
2013-03-05 08:13:00,40.7,32.0,30.05,WNW,285,1.0,2.0,72,0.00,,,0.00,weatherlink.com 1.10,2013-03-05 13:13:00,
2013-03-05 08:28:00,39.9,34.0,30.05,West,273,0.0,2.0,79,0.00,,,0.00,weatherlink.com 1.10,2013-03-05 13:28:00,
2013-03-05 08:43:00,39.2,35.0,30.05,WNW,293,1.0,1.0,83,0.01,,,0.01,weatherlink.com 1.10,2013-03-05 13:43:00,
2013-03-05 08:58:00,39.0,35.0,30.05,West,270,0.0,1.0,85,0.01,,,0.01,weatherlink.com 1.10,2013-03-05 13:58:00,
2013-03-05 09:13:00,39.4,35.0,30.04,NW,311,0.0,1.0,84,0.01,,,0.01,weatherlink.com 1.10,2013-03-05 14:13:00,
2013-03-05 09:29:00,39.7,36.0,30.03,South,169,0.0,1.0,86,0.01,,,0.01,weatherlink.com 1.10,2013-03-05 14:29:00,
2013-03-05 09:44:00,40.2,36.0,30.03,West,264,0.0,1.0,85,0.00,,,0.01,weatherlink.com 1.10,2013-03-05 14:44:00,
2013-03-05 09:59:00,40.6,36.0,30.03,West,263,1.0,3.0,84,0.00,,,0.01,weatherlink.com 1.10,2013-03-05 14:59:00,
2013-03-05 10:14:00,40.8,37.0,30.02,NW,320,0.0,2.0,85,0.00,,,0.01,weatherlink.com 1.10,2013-03-05 15:14:00,
2013-03-05 10:29:00,41.1,37.0,30.01,WSW,249,0.0,3.0,85,0.00,,,0.01,weatherlink.com 1.10,2013-03-05 15:29:00,
2013-03-05 10:44:00,41.4,37.0,30.02,WSW,253,0.0,3.0,85,0.00,,,0.01,weatherlink.com 1.10,2013-03-05 15:44:00,
2013-03-05 10:59:00,41.2,37.0,30.01,NW,308,1.0,3.0,86,0.00,,,0.01,weatherlink.com 1.10,2013-03-05 15:59:00,
2013-03-05 11:14:00,41.5,38.0,30.00,WNW,295,0.0,1.0,88,0.00,,,0.01,weatherlink.com 1.10,2013-03-05 16:14:00,
2013-03-05 11:44:00,41.8,39.0,29.99,West,269,0.0,3.0,90,0.00,,,0.01,weatherlink.com 1.10,2013-03-05 16:44:00,
2013-03-05 11:59:00,42.3,40.0,29.97,SSW,208,0.0,1.0,90,0.00,,,0.01,weatherlink.com 1.10,2013-03-05 16:59:00,
2013-03-05 12:14:00,42.8,40.0,29.96,NW,316,0.0,1.0,89,0.00,,,0.01,weatherlink.com 1.10,2013-03-05 17:14:00,
2013-03-05 12:29:00,43.3,40.0,29.95,ESE,118,0.0,1.0,88,0.00,,,0.01,weatherlink.com 1.10,2013-03-05 17:29:00,
2013-03-05 12:44:00,43.8,41.0,29.95,WSW,250,0.0,1.0,88,0.00,,,0.01,weatherlink.com 1.10,2013-03-05 17:44:00,
2013-03-05 12:59:00,44.7,41.0,29.94,WNW,290,0.0,1.0,88,0.00,,,0.01,weatherlink.com 1.10,2013-03-05 17:59:00,
2013-03-05 13:14:00,45.3,41.0,29.93,SSE,155,0.0,2.0,86,0.00,,,0.01,weatherlink.com 1.10,2013-03-05 18:14:00,
2013-03-05 13:29:00,45.7,43.0,29.92,ESE,104,0.0,3.0,89,0.00,,,0.01,weatherlink.com 1.10,2013-03-05 18:29:00,
2013-03-05 13:44:00,47.1,44.0,29.90,West,262,1.0,4.0,90,0.00,,,0.01,weatherlink.com 1.10,2013-03-05 18:44:00,
2013-03-05 13:59:00,46.6,44.0,29.89,NW,308,3.0,8.0,90,0.00,,,0.01,weatherlink.com 1.10,2013-03-05 18:59:00,
2013-03-05 14:14:00,46.2,44.0,29.88,West,276,2.0,6.0,91,0.00,,,0.01,weatherlink.com 1.10,2013-03-05 19:14:00,
2013-03-05 14:29:00,45.9,44.0,29.88,NNW,331,2.0,8.0,92,0.00,,,0.01,weatherlink.com 1.10,2013-03-05 19:29:00,
2013-03-05 14:44:00,46.1,44.0,29.87,WNW,291,3.0,7.0,93,0.00,,,0.01,weatherlink.com 1.10,2013-03-05 19:44:00,
2013-03-05 14:59:00,46.3,45.0,29.86,West,277,1.0,6.0,94,0.00,,,0.01,weatherlink.com 1.10,2013-03-05 19:59:00,
2013-03-05 15:14:00,46.6,45.0,29.84,WNW,295,4.0,5.0,95,0.01,,,0.02,weatherlink.com 1.10,2013-03-05 20:14:00,
2013-03-05 15:29:00,46.9,45.0,29.82,West,263,3.0,4.0,94,0.01,,,0.02,weatherlink.com 1.10,2013-03-05 20:29:00,
2013-03-05 15:44:00,46.8,45.0,29.82,WNW,288,2.0,6.0,94,0.01,,,0.02,weatherlink.com 1.10,2013-03-05 20:44:00,
2013-03-05 16:00:00,47.2,46.0,29.81,West,270,3.0,3.0,94,0.00,,,0.02,weatherlink.com 1.10,2013-03-05 21:00:00,
2013-03-05 16:15:00,47.4,46.0,29.79,West,277,1.0,6.0,93,0.00,,,0.02,weatherlink.com 1.10,2013-03-05 21:15:00,
2013-03-05 16:30:00,47.5,46.0,29.77,WNW,303,1.0,4.0,94,0.01,,,0.03,weatherlink.com 1.10,2013-03-05 21:30:00,
2013-03-05 16:45:00,47.4,46.0,29.75,West,260,1.0,2.0,94,0.04,,,0.06,weatherlink.com 1.10,2013-03-05 21:45:00,
2013-03-05 17:00:00,47.4,46.0,29.75,WNW,290,0.0,1.0,95,0.10,,,0.12,weatherlink.com 1.10,2013-03-05 22:00:00,
2013-03-05 17:15:00,47.3,46.0,29.74,SSE,150,0.0,1.0,96,0.18,,,0.20,weatherlink.com 1.10,2013-03-05 22:15:00,
2013-03-05 17:30:00,47.3,46.0,29.76,WNW,284,1.0,1.0,96,0.29,,,0.32,weatherlink.com 1.10,2013-03-05 22:30:00,
2013-03-05 17:45:00,47.5,47.0,29.77,SE,124,0.0,1.0,97,0.38,,,0.44,weatherlink.com 1.10,2013-03-05 22:45:00,
2013-03-05 18:00:00,47.3,47.0,29.78,ESE,109,0.0,0.0,97,0.45,,,0.57,weatherlink.com 1.10,2013-03-05 23:00:00,
2013-03-05 18:15:00,47.2,46.0,29.74,ESE,120,2.0,2.0,97,0.46,,,0.66,weatherlink.com 1.10,2013-03-05 23:15:00,
2013-03-05 18:30:00,47.2,46.0,29.73,West,281,1.0,3.0,97,0.35,,,0.67,weatherlink.com 1.10,2013-03-05 23:30:00,
2013-03-05 18:45:00,47.3,47.0,29.73,SSW,194,1.0,2.0,97,0.23,,,0.67,weatherlink.com 1.10,2013-03-05 23:45:00,
2013-03-05 19:00:00,47.4,46.0,29.74,WNW,284,0.0,5.0,96,0.10,,,0.67,weatherlink.com 1.10,2013-03-06 00:00:00,
2013-03-05 19:15:00,47.5,46.0,29.74,WNW,303,1.0,6.0,95,0.01,,,0.67,weatherlink.com 1.10,2013-03-06 00:15:00,
2013-03-05 19:30:00,46.8,46.0,29.73,NW,305,1.0,2.0,96,0.00,,,0.67,weatherlink.com 1.10,2013-03-06 00:30:00,
2013-03-05 19:45:00,46.4,45.0,29.73,West,263,0.0,1.0,96,0.00,,,0.67,weatherlink.com 1.10,2013-03-06 00:45:00,
2013-03-05 20:00:00,46.8,46.0,29.73,WSW,238,0.0,5.0,95,0.00,,,0.67,weatherlink.com 1.10,2013-03-06 01:00:00,
2013-03-05 20:15:00,47.0,45.0,29.73,WNW,283,2.0,3.0,92,0.00,,,0.67,weatherlink.com 1.10,2013-03-06 01:15:00,
2013-03-05 20:30:00,46.9,44.0,29.73,WNW,295,1.0,7.0,88,0.00,,,0.67,weatherlink.com 1.10,2013-03-06 01:30:00,
2013-03-05 20:45:00,45.8,43.0,29.72,WSW,257,2.0,4.0,90,0.00,,,0.67,weatherlink.com 1.10,2013-03-06 01:45:00,
2013-03-05 21:00:00,45.9,42.0,29.73,West,278,2.0,6.0,85,0.00,,,0.67,weatherlink.com 1.10,2013-03-06 02:00:00,
2013-03-05 21:15:00,45.3,37.0,29.73,NW,320,8.0,14.0,73,0.00,,,0.67,weatherlink.com 1.10,2013-03-06 02:15:00,
2013-03-05 21:30:00,44.1,33.0,29.74,SW,225,9.0,16.0,65,0.00,,,0.67,weatherlink.com 1.10,2013-03-06 02:30:00,
2013-03-05 21:45:00,43.4,32.0,29.75,WNW,298,2.0,12.0,65,0.00,,,0.67,weatherlink.com 1.10,2013-03-06 02:45:00,
2013-03-05 22:00:00,42.7,32.0,29.75,WNW,289,2.0,13.0,65,0.00,,,0.67,weatherlink.com 1.10,2013-03-06 03:00:00,
2013-03-05 22:15:00,41.5,30.0,29.76,NW,304,4.0,11.0,64,0.00,,,0.67,weatherlink.com 1.10,2013-03-06 03:15:00,
2013-03-05 22:30:00,40.5,29.0,29.76,SW,228,6.0,14.0,64,0.00,,,0.67,weatherlink.com 1.10,2013-03-06 03:30:00,
2013-03-05 22:45:00,39.5,29.0,29.75,West,276,1.0,14.0,66,0.00,,,0.67,weatherlink.com 1.10,2013-03-06 03:45:00,
2013-03-05 23:00:00,38.5,29.0,29.75,WNW,297,2.0,8.0,69,0.00,,,0.67,weatherlink.com 1.10,2013-03-06 04:00:00,
2013-03-05 23:15:00,37.6,29.0,29.75,West,266,2.0,8.0,71,0.00,,,0.67,weatherlink.com 1.10,2013-03-06 04:15:00,
2013-03-05 23:30:00,36.8,28.0,29.76,NW,304,4.0,8.0,71,0.00,,,0.67,weatherlink.com 1.10,2013-03-06 04:30:00,
2013-03-05 23:45:00,36.3,28.0,29.76,West,266,2.0,5.0,71,0.00,,,0.67,weatherlink.com 1.10,2013-03-06 04:45:00,